"Pseudo-MPEC" for P11gRS6

Created 2021 Jun 11 11:07:18 UT using Find_Orb

Click here for an explanation of pseudo-MPECs

 
 Astrometry: 
     P11gRS6  C2021 06 09o9(3?JnwhY[ZPn#X]'tRRU^F)d-Y@(ZyyIdPlC1LM%)+ZfgTr?cVF51
     P11gRS6  C2021 06 09?l@L%aC.uB$NEBY7ej=AstrometrymJFR*f?8_8;XH6^NQ'6LInTF51
     P11gRS6  C2021 06 09o63`UXX($UfEN$*AZyy]57ef?UlBI!k9hRnF0qNhn3.sqO-K(j`@F51
     P11gRS6  C2021 06 09U'_0s'3NML=%uciFl1L`yZ3p0AAle\2ucq_6Ss?Zy\_ty(@k9FR8F51
     P11gRS6  C2021 06 09[ecE`^7LtJG]u,N(YmbY)!-()NNwNi/E,T`kl2ep3#k?+NyR62[8F51
     P11gRS6 |C2021 06 09?=uGkLPK_KHn1m:w3006U)u)\MtnbfhYa5KheP*%!,MfTgcgQsW`807
     P11gRS6 |C2021 06 09WRD9Ybu^PTy?%g_0K1Xkx2X;S/50IFm_u1!po+$oK^6dnb(%tsW`807
     P11gRS6 |C2021 06 09+s9:b#=.?1Gnv#dF.ho3+wtmYTAR1']^@QCobbZredacted;dVVg807
     P11gRS6 |C2021 06 09tO=KcCW:r$tLFL7'dvH;clickPEd9bD#hererUDG1sd]\anwYLK+807
     P11gRS6 KC2021 06 10.15298714 14 03.11 -26 05 22.6    ~6A4b 21.33GVNEOCPI52
     P11gRS6 KC2021 06 10.15915714 14 02.97 -26 05 19.7    ~6A4b 20.30GVNEOCPI52
     P11gRS6 KC2021 06 10.16800014 14 02.72 -26 05 17.9    ~6A4b 20.45GVNEOCPI52
     P11gRS6 KC2021 06 10.17486514 14 02.48 -26 05 14.7    ~6A4b 20.67GVNEOCPI52
     P11gRS6 KC2021 06 11LwCT;s1I!uct?\Oc)`7GwMbk$BrO'D'$xBQforS!)=?W7!,T^Fk+474
     P11gRS6 KC2021 06 11x?HCwj;MK`TP^P'9^\ogT4xkj*yN*E4\\;AhQ[v[@M=31S(R-pPR474
     P11gRS6 KC2021 06 11`4,irQ#/o950s0yJFO`@WSg05sr+#$F705dals0_bAXrt\IB^Skm474
     P11gRS6 KC2021 06 11AjfDn2\Y!tms+R5Ld-FFICOv0Cnjd^VexplanationbSBxfCx`6K474

Station data:
(474) Mount John Observatory, Lake Tekapo  (S43.987388 E170.464960)  New
   Zealand.  Observers A. C. Gilmore, P. M. Kilmartin. Measurer P. M.
   Kilmartin. 1.0-m f/7.7 reflector + CCD.
(807) Cerro Tololo Observatory, La Serena  (S30.169136 W70.805900)  Chile.
(F51) Pan-STARRS 1, Haleakala  (N20.707235 W156.255910)  US/Hawaii.
   Observers N. Primak, A. Schultz, S. Watters, J. Thiel, T. Goggia. Measurer
   PS1 Science Consortium. 1.8-m Ritchey-Chrétien + CCD.
(I52) Steward Observatory, Mt. Lemmon Station  (N32.442547 W110.788920)
   US/Arizona.  Observers T. A. Pruyne, B. M. Africano, E. J. Christensen, G.
   A. Farneth, D. C. Fuls, A. R. Gibbs, A. D. Grauer, H. Gröller, J. A.
   Johnson, R. A. Kowalski, S. M. Larson, G. J. Leonard, D. Rankin, R. L.
   Seaman, F. C. Shelly. 1.0-m reflector + CCD.

Orbital elements:  P11gRS6
   Perihelion 2022 Jan 18.569487 +/- 28.4808 TT = 13:40:03 (JD 2459598.069487)
Epoch 2021 Jun 11.0 TT = JDT 2459376.5   Earth MOID: 0.7717   AutoNEOCP
M 309.94543699 +/- 13.138701        (J2000 ecliptic)
n   0.22590909 +/- 0.0364595        Peri.    2.67874 +/- 344.86159
a   2.67001417 +/- 0.28712          Node   320.42886 +/- 2.1668191
e   0.3316633 +/- 0.0886566         Incl.    7.49179 +/- 0.0782424
P   4.36                   H 17.5   G  0.15   U 10.5  
q 1.78446829 +/- 0.0527212    Q 3.55556006 +/- 0.700427
From 17 observations 2021 June 9-11; mean residual 0".20
Residuals in arcseconds: 
210609 F51  .00   .04-    210609 807  .11+  .09+    210610 I52  .13-  .16+    
210609 F51  .12-  .08+    210609 807  .15+  .05-    210611 474  .06+  .02+    
210609 F51  .01-  .03-    210609 807  .08-  .11+    210611 474  .13+  .06-    
210609 F51  .02+  .07-    210610 I52  .43-  .19-    210611 474  .07-  .05+    
210609 F51  .06+  .06-    210610 I52  .17+  .58+    210611 474  .14-  .04-    
210609 807  .06-  .13+    210610 I52  .35+  .67-    

Ephemerides (geocentric):
Date (UTC) HH   RA              Dec         delta   r     elong  mag " sig PA
---- -- -- --  -------------   -----------  ------ ------ -----  --- ---- ---
2021 06 11 11  14 13 28.885   -25 57 48.25  1.4751 2.3313 138.0 21.1 .036  78
2021 06 11 12  14 13 27.849   -25 57 34.03  1.4753 2.3311 138.0 21.1 .050  75
2021 06 11 13  14 13 26.817   -25 57 19.82  1.4754 2.3310 138.0 21.1 .064  73
2021 06 11 14  14 13 25.789   -25 57 05.62  1.4756 2.3308 137.9 21.1 .080  72
2021 06 11 15  14 13 24.764   -25 56 51.42  1.4758 2.3307 137.9 21.1 .096  71
2021 06 11 16  14 13 23.743   -25 56 37.24  1.4759 2.3305 137.8 21.1 .112  70
2021 06 11 17  14 13 22.725   -25 56 23.06  1.4761 2.3304 137.8 21.1 .130  70
2021 06 11 18  14 13 21.710   -25 56 08.88  1.4763 2.3302 137.7 21.1 .148  69
2021 06 11 19  14 13 20.699   -25 55 54.72  1.4764 2.3300 137.7 21.1 .166  69
2021 06 11 20  14 13 19.692   -25 55 40.56  1.4766 2.3299 137.7 21.1 .186  68
2021 06 11 21  14 13 18.688   -25 55 26.41  1.4768 2.3297 137.6 21.1 .206  68
2021 06 11 22  14 13 17.687   -25 55 12.27  1.4770 2.3296 137.6 21.1 .227  68
2021 06 11 23  14 13 16.690   -25 54 58.14  1.4771 2.3294 137.5 21.1 .248  68
2021 06 12 00  14 13 15.697   -25 54 44.01  1.4773 2.3293 137.5 21.1 .270  67
2021 06 12 01  14 13 14.707   -25 54 29.89  1.4775 2.3291 137.5 21.1 .293  67
2021 06 12 02  14 13 13.720   -25 54 15.78  1.4776 2.3290 137.4 21.1 .316  67
2021 06 12 03  14 13 12.737   -25 54 01.68  1.4778 2.3288 137.4 21.1 .340  67
2021 06 12 04  14 13 11.757   -25 53 47.59  1.4780 2.3287 137.3 21.1 .365  67
2021 06 12 05  14 13 10.781   -25 53 33.50  1.4781 2.3285 137.3 21.1 .391  67
2021 06 12 06  14 13 09.809   -25 53 19.43  1.4783 2.3284 137.2 21.1 .417  67
2021 06 12 07  14 13 08.839   -25 53 05.36  1.4785 2.3282 137.2 21.1 .444  67
2021 06 12 08  14 13 07.874   -25 52 51.29  1.4787 2.3280 137.2 21.1 .471  66
2021 06 12 09  14 13 06.912   -25 52 37.24  1.4788 2.3279 137.1 21.1 .500  66
2021 06 12 10  14 13 05.953   -25 52 23.20  1.4790 2.3277 137.1 21.1 .529  66
2021 06 12 11  14 13 04.998   -25 52 09.16  1.4792 2.3276 137.0 21.1 .558  66
2021 06 12 12  14 13 04.046   -25 51 55.13  1.4793 2.3274 137.0 21.1 .589  66
2021 06 12 13  14 13 03.098   -25 51 41.11  1.4795 2.3273 136.9 21.1 .620  66
2021 06 12 14  14 13 02.154   -25 51 27.10  1.4797 2.3271 136.9 21.1 .651  66
2021 06 12 15  14 13 01.213   -25 51 13.09  1.4799 2.3270 136.9 21.1 .684  66
2021 06 12 16  14 13 00.275   -25 50 59.10  1.4800 2.3268 136.8 21.1 .717  66
2021 06 12 17  14 12 59.341   -25 50 45.11  1.4802 2.3267 136.8 21.1 .751  66
2021 06 12 18  14 12 58.410   -25 50 31.13  1.4804 2.3265 136.7 21.1 .785  66
2021 06 12 19  14 12 57.483   -25 50 17.16  1.4806 2.3264 136.7 21.1 .821  66
2021 06 12 20  14 12 56.560   -25 50 03.20  1.4807 2.3262 136.7 21.1 .857  66
2021 06 12 21  14 12 55.640   -25 49 49.25  1.4809 2.3260 136.6 21.1 .893  66
2021 06 12 22  14 12 54.723   -25 49 35.30  1.4811 2.3259 136.6 21.1 .931  66
2021 06 12 23  14 12 53.810   -25 49 21.36  1.4813 2.3257 136.5 21.1 .969  66
2021 06 13 00  14 12 52.900   -25 49 07.44  1.4814 2.3256 136.5 21.1 1.01  66
2021 06 13 01  14 12 51.994   -25 48 53.52  1.4816 2.3254 136.4 21.1 1.05  66
2021 06 13 02  14 12 51.092   -25 48 39.61  1.4818 2.3253 136.4 21.1 1.09  66
2021 06 13 03  14 12 50.193   -25 48 25.70  1.4820 2.3251 136.4 21.1 1.13  66
2021 06 13 04  14 12 49.298   -25 48 11.81  1.4822 2.3250 136.3 21.1 1.17  66
2021 06 13 05  14 12 48.406   -25 47 57.93  1.4823 2.3248 136.3 21.1 1.21  66
2021 06 13 06  14 12 47.517   -25 47 44.05  1.4825 2.3247 136.2 21.1 1.26  66
2021 06 13 07  14 12 46.632   -25 47 30.18  1.4827 2.3245 136.2 21.1 1.30  66
2021 06 13 08  14 12 45.751   -25 47 16.32  1.4829 2.3244 136.2 21.1 1.34  66
2021 06 13 09  14 12 44.873   -25 47 02.47  1.4830 2.3242 136.1 21.1 1.39  66
2021 06 13 10  14 12 43.999   -25 46 48.63  1.4832 2.3240 136.1 21.1 1.44  66